This is the latest recevied weather packets stored in our database for station/object JO1YDG-13. If no packets are shown the sender has not sent any weather packets the latest 1 day(s).
| Time | Temp. | Humidity | Pressure | Rain* | Wind** | Luminosity | Snow |
|---|---|---|---|---|---|---|---|
| 1778007783 | 10° C | 81% | 995.2 hPa | 0 mm | 0.89 m/s, 270° | - | - |
| 1778007482 | 10° C | 81% | 995.1 hPa | 0 mm | 0 m/s | - | - |
| 1778007182 | 10° C | 80% | 995.1 hPa | 0 mm | 0 m/s | - | - |
| 1778006883 | 10.56° C | 79% | 995.1 hPa | 0 mm | 0.89 m/s, 257° | - | - |
| 1778006583 | 10.56° C | 79% | 995.1 hPa | 0 mm | 0.45 m/s, 323° | - | - |
| 1778006282 | 10.56° C | 79% | 994.9 hPa | 0 mm | 0.45 m/s, 190° | - | - |
| 1778005983 | 10.56° C | 79% | 994.9 hPa | 0 mm | 0.89 m/s, 270° | - | - |
| 1778005683 | 10.56° C | 79% | 994.9 hPa | 0 mm | 0.89 m/s, 270° | - | - |
| 1778005383 | 10.56° C | 79% | 995 hPa | 0 mm | 0.89 m/s, 261° | - | - |
| 1778005084 | 10.56° C | 79% | 995 hPa | 0 mm | 0.89 m/s, 270° | - | - |
| 1778004784 | 10.56° C | 79% | 994.9 hPa | 0 mm | 0.89 m/s, 270° | - | - |
| 1778004483 | 10.56° C | 78% | 994.9 hPa | 0 mm | 0.89 m/s, 270° | - | - |
| 1778004183 | 10.56° C | 78% | 994.9 hPa | 0 mm | 0.45 m/s, 270° | - | - |
| 1778003883 | 10.56° C | 77% | 994.9 hPa | 0 mm | 0.89 m/s, 270° | - | - |
| 1778003583 | 10.56° C | 77% | 994.9 hPa | 0 mm | 0.89 m/s, 270° | - | - |
| 1778003283 | 11.11° C | 77% | 994.9 hPa | 0 mm | 0.89 m/s, 270° | - | - |
| 1778002983 | 11.11° C | 77% | 994.9 hPa | 0 mm | 0.45 m/s, 283° | - | - |
| 1778002682 | 11.11° C | 75% | 994.7 hPa | 0 mm | 0.45 m/s, 270° | - | - |
| 1778002382 | 11.11° C | 75% | 994.7 hPa | 0 mm | 0.89 m/s, 347° | - | - |
| 1778002091 | 11.11° C | 75% | 994.7 hPa | 0 mm | 0.89 m/s, 338° | - | - |
| 1778001782 | 11.11° C | 76% | 994.7 hPa | 0 mm | 1.34 m/s, 325° | - | - |
| 1778001484 | 11.11° C | 76% | 994.7 hPa | 0 mm | 0.89 m/s, 349° | - | - |
| 1778001183 | 11.11° C | 77% | 994.8 hPa | 0 mm | 0.89 m/s, 11° | - | - |
| 1778000883 | 10.56° C | 78% | 994.8 hPa | 0 mm | 0.89 m/s, 290° | - | - |
| 1778000583 | 10.56° C | 78% | 994.8 hPa | 0 mm | 1.34 m/s, 349° | - | - |
* Rain latest hour (hover to see other rain measurements)
** Current wind speed in m/s (hover to see current wind gust speed)